Location: Eyeline Observatory
(43.2182°N, 78.8632°W)
Time: 11:10:20
(UTC-04:00)

Tiangong 1 - Pass Details

Date: 11 October 2017
Orbit: 292 x 319 km, 42.8° (Epoch: 23 October)

Event Time Altitude Azimuth Distance (km) Brightness Sun altitude
Rises 19:30:23 0° 271° (W) 2,046 7.1 -10.2°
Reaches altitude 10° 19:32:22 10° 271° (W) 1,210 5.2 -10.6°
Maximum altitude 19:35:05 82° 183° (S) 318 0.6 -11.1°
Enters shadow 19:36:40 21° 97° (E) 754 1.9 -11.4°
